Previsão horária em Abramovka

Hoje, 16 Maio, Domingo

Tempo Temperatura Precipitação Vento Pressão Humidade
00:00 +21°C° 0 mm 1 m/s 756 mmHg 70%
01:00 +19°C° 0 mm 2 m/s 756 mmHg 73%
02:00 +19°C° 0 mm 2 m/s 756 mmHg 75%
03:00 +19°C° 0 mm 2 m/s 756 mmHg 76%
04:00 +19°C° 0 mm 2 m/s 756 mmHg 78%
05:00 +20°C° 0 mm 2 m/s 756 mmHg 80%
06:00 +21°C° 0 mm 1 m/s 756 mmHg 82%
07:00 +21°C° 0 mm 2 m/s 756 mmHg 76%
08:00 +24°C° 0 mm 2 m/s 756 mmHg 70%
09:00 +25°C° 0 mm 3 m/s 756 mmHg 66%
10:00 +26°C° 0 mm 3 m/s 756 mmHg 60%
11:00 +27°C° 0 mm 4 m/s 755 mmHg 55%
12:00 +28°C° 0 mm 5 m/s 755 mmHg 49%
13:00 +29°C° 0 mm 5 m/s 755 mmHg 46%
14:00 +29°C° 0 mm 5 m/s 755 mmHg 43%
15:00 +29°C° 0 mm 6 m/s 755 mmHg 40%
16:00 +29°C° 0 mm 5 m/s 754 mmHg 44%
17:00 +28°C° 0 mm 4 m/s 754 mmHg 48%
18:00 +27°C° 0 mm 3 m/s 753 mmHg 53%
19:00 +25°C° 0 mm 4 m/s 753 mmHg 54%
20:00 +23°C° 0 mm 4 m/s 753 mmHg 55%
21:00 +21°C° 0 mm 4 m/s 753 mmHg 56%
22:00 +21°C° 0 mm 5 m/s 753 mmHg 52%
23:00 +21°C° 0 mm 5 m/s 753 mmHg 48%

Amanhã, 17 Maio, Segunda-feira

Tempo Temperatura Precipitação Vento Pressão Humidade
00:00 +21°C° 0 mm 6 m/s 752 mmHg 44%
01:00 +20°C° 0 mm 5 m/s 752 mmHg 47%
02:00 +19°C° 0 mm 5 m/s 752 mmHg 49%
03:00 +17°C° 0 mm 5 m/s 752 mmHg 51%
04:00 +17°C° 0 mm 5 m/s 752 mmHg 53%
05:00 +17°C° 0 mm 5 m/s 752 mmHg 56%
06:00 +17°C° 0 mm 5 m/s 752 mmHg 58%
07:00 +19°C° 0 mm 6 m/s 753 mmHg 56%
08:00 +21°C° 0 mm 6 m/s 753 mmHg 53%
09:00 +23°C° 0 mm 7 m/s 753 mmHg 51%
10:00 +24°C° 0 mm 7 m/s 753 mmHg 49%
11:00 +26°C° 0 mm 7 m/s 753 mmHg 48%
12:00 +27°C° 0 mm 7 m/s 753 mmHg 46%
13:00 +28°C° 0 mm 7 m/s 753 mmHg 46%
14:00 +28°C° 0 mm 6 m/s 753 mmHg 45%
15:00 +29°C° 0 mm 6 m/s 753 mmHg 45%
16:00 +28°C° 0 mm 5 m/s 753 mmHg 50%
17:00 +27°C° 0 mm 4 m/s 753 mmHg 55%
18:00 +27°C° 0 mm 3 m/s 753 mmHg 60%
19:00 +25°C° 0 mm 2 m/s 753 mmHg 66%
20:00 +23°C° 0 mm 2 m/s 753 mmHg 72%
21:00 +22°C° 0 mm 1 m/s 753 mmHg 77%
22:00 +20°C° 0 mm 2 m/s 753 mmHg 79%
23:00 +20°C° 0 mm 2 m/s 753 mmHg 80%

Depois de amanhã, 18 Maio, Terça-feira

Tempo Temperatura Precipitação Vento Pressão Humidade
00:00 +19°C° 0 mm 3 m/s 753 mmHg 81%
01:00 +18°C° 0 mm 2 m/s 753 mmHg 84%
02:00 +18°C° 0 mm 2 m/s 753 mmHg 86%
03:00 +17°C° 0 mm 2 m/s 753 mmHg 89%
04:00 +17°C° 0 mm 2 m/s 753 mmHg 88%
05:00 +18°C° 0 mm 2 m/s 753 mmHg 87%
06:00 +18°C° 0 mm 2 m/s 753 mmHg 86%
07:00 +19°C° 0 mm 2 m/s 753 mmHg 80%
08:00 +21°C° 0 mm 3 m/s 753 mmHg 74%
09:00 +22°C° 0 mm 3 m/s 753 mmHg 68%
10:00 +24°C° 0 mm 3 m/s 753 mmHg 64%
11:00 +25°C° 0 mm 3 m/s 753 mmHg 59%
12:00 +26°C° 0 mm 2 m/s 753 mmHg 55%
13:00 +26°C° 0 mm 3 m/s 753 mmHg 56%
14:00 +26°C° 0 mm 4 m/s 753 mmHg 57%
15:00 +26°C° 0 mm 4 m/s 753 mmHg 58%
16:00 +25°C° 0.1 mm 5 m/s 753 mmHg 62%
17:00 +23°C° 0.1 mm 5 m/s 753 mmHg 65%
18:00 +22°C° 0.1 mm 5 m/s 753 mmHg 68%
19:00 +21°C° 0 mm 5 m/s 753 mmHg 72%
20:00 +19°C° 0 mm 4 m/s 754 mmHg 76%
21:00 +17°C° 0 mm 4 m/s 754 mmHg 80%
22:00 +17°C° 0 mm 3 m/s 754 mmHg 83%
23:00 +16°C° 0 mm 3 m/s 754 mmHg 85%

19 Maio, Quarta-feira

Tempo Temperatura Precipitação Vento Pressão Humidade
00:00 +15°C° 0 mm 2 m/s 754 mmHg 87%
01:00 +15°C° 0 mm 2 m/s 754 mmHg 87%
02:00 +15°C° 0 mm 2 m/s 754 mmHg 87%
03:00 +15°C° 0 mm 2 m/s 754 mmHg 87%
04:00 +15°C° 0 mm 2 m/s 754 mmHg 87%
05:00 +15°C° 0 mm 2 m/s 754 mmHg 88%
06:00 +16°C° 0 mm 2 m/s 754 mmHg 88%
07:00 +20°C° 0 mm 7 m/s 755 mmHg 63%
08:00 +19°C° 0 mm 6 m/s 755 mmHg 67%
09:00 +17°C° 0 mm 6 m/s 754 mmHg 72%
10:00 +20°C° 0.1 mm 6 m/s 755 mmHg 68%
11:00 +20°C° 0.1 mm 7 m/s 755 mmHg 63%
12:00 +21°C° 0.1 mm 7 m/s 755 mmHg 58%
13:00 +20°C° 0.2 mm 8 m/s 755 mmHg 60%
14:00 +20°C° 0.2 mm 8 m/s 755 mmHg 59%
15:00 +19°C° 0.2 mm 9 m/s 755 mmHg 58%
16:00 +19°C° 0 mm 6 m/s 755 mmHg 70%
17:00 +19°C° 0 mm 6 m/s 755 mmHg 68%
18:00 +19°C° 0 mm 6 m/s 755 mmHg 66%
19:00 +17°C° 0 mm 6 m/s 755 mmHg 70%
20:00 +15°C° 0 mm 6 m/s 756 mmHg 75%
21:00 +14°C° 0 mm 6 m/s 756 mmHg 79%
22:00 +14°C° 0 mm 6 m/s 756 mmHg 79%
23:00 +14°C° 0 mm 6 m/s 756 mmHg 80%

20 Maio, Quinta-feira

Tempo Temperatura Precipitação Vento Pressão Humidade
00:00 +14°C° 0 mm 6 m/s 756 mmHg 81%
01:00 +14°C° 0 mm 6 m/s 757 mmHg 82%
02:00 +14°C° 0 mm 6 m/s 757 mmHg 82%
03:00 +13°C° 0 mm 6 m/s 757 mmHg 83%
04:00 +13°C° 0 mm 6 m/s 757 mmHg 84%
05:00 +13°C° 0 mm 6 m/s 757 mmHg 84%
06:00 +13°C° 0 mm 6 m/s 758 mmHg 85%
07:00 +15°C° 0 mm 6 m/s 758 mmHg 78%
08:00 +16°C° 0 mm 7 m/s 758 mmHg 71%
09:00 +17°C° 0 mm 7 m/s 758 mmHg 64%
10:00 +18°C° 0 mm 7 m/s 758 mmHg 60%
11:00 +21°C° 0 mm 6 m/s 759 mmHg 55%
12:00 +22°C° 0 mm 6 m/s 759 mmHg 51%
13:00 +22°C° 0 mm 5 m/s 759 mmHg 48%
14:00 +23°C° 0 mm 5 m/s 759 mmHg 46%
15:00 +25°C° 0 mm 4 m/s 759 mmHg 43%
16:00 +24°C° 0 mm 3 m/s 759 mmHg 45%
17:00 +24°C° 0 mm 2 m/s 759 mmHg 47%
18:00 +24°C° 0 mm 1 m/s 759 mmHg 49%
19:00 +22°C° 0 mm 1 m/s 760 mmHg 54%
20:00 +19°C° 0 mm 2 m/s 760 mmHg 59%
21:00 +17°C° 0 mm 2 m/s 760 mmHg 64%
22:00 +17°C° 0 mm 2 m/s 760 mmHg 67%
23:00 +16°C° 0 mm 1 m/s 760 mmHg 70%

21 Maio, Sexta-feira

Tempo Temperatura Precipitação Vento Pressão Humidade
00:00 +16°C° 0 mm 1 m/s 760 mmHg 72%
01:00 +15°C° 0 mm 2 m/s 760 mmHg 74%
02:00 +15°C° 0 mm 2 m/s 760 mmHg 76%
03:00 +14°C° 0 mm 2 m/s 760 mmHg 78%
04:00 +14°C° 0 mm 3 m/s 760 mmHg 78%
05:00 +14°C° 0 mm 3 m/s 760 mmHg 79%
06:00 +14°C° 0 mm 3 m/s 760 mmHg 79%
07:00 +18°C° 0 mm 4 m/s 760 mmHg 72%
08:00 +20°C° 0 mm 6 m/s 760 mmHg 64%
09:00 +22°C° 0 mm 7 m/s 760 mmHg 57%
10:00 +23°C° 0 mm 7 m/s 760 mmHg 53%
11:00 +26°C° 0 mm 7 m/s 760 mmHg 49%
12:00 +27°C° 0 mm 7 m/s 760 mmHg 46%
13:00 +27°C° 0 mm 7 m/s 759 mmHg 45%
14:00 +28°C° 0 mm 7 m/s 759 mmHg 45%
15:00 +28°C° 0 mm 8 m/s 759 mmHg 44%
16:00 +28°C° 0 mm 7 m/s 759 mmHg 47%
17:00 +27°C° 0 mm 6 m/s 759 mmHg 51%
18:00 +27°C° 0 mm 6 m/s 759 mmHg 54%
19:00 +25°C° 0 mm 5 m/s 759 mmHg 58%
20:00 +22°C° 0 mm 4 m/s 759 mmHg 63%
21:00 +20°C° 0 mm 3 m/s 759 mmHg 68%
22:00 +20°C° 0 mm 3 m/s 758 mmHg 67%
23:00 +19°C° 0 mm 3 m/s 758 mmHg 65%
Mostrar mais

Necessitamos do seu Consentimento

A Meteoprog e os seus Fornecedores de Serviços podem armazenar e aceder a dados pessoais como cookies, identificadores do dispositivo ou outras tecnologias semelhantes existentes no seu dispositivo e processar estes dados para personalizar conteúdos e anúncios, assim como funcionalidades nas redes sociais e análise de tráfego.

  • Armazenar e/ou aceder a informações no seu dispositivo

    Os cookies, identificadores do dispositivo ou outras informações podem ser armazenados ou acedidos no seu dispositivo, para os fins acima indicados.

  • Anúncios e conteúdos personalizados, medição de anúncios e conteúdos, dados sobre o público-alvo e desenvolvimento de produtos

    Os anúncios e os conteúdos podem ser personalizados com base num perfil. Podem ser adicionados dados adicionais para uma maior personalização dos anúncios e dos conteúdos. A eficácia dos anúncios e dos conteúdos pode ser medida. Podem ser obtidas informações sobre o público que visualizou os anúncios e os conteúdos. Estes dados podem ser usados para desenvolver ou melhorar sistemas, softwares ou a experiência do utilizador.

Ao clicar em "Eu concordo”, permitirá o uso de cookies, identificadores do dispositivo e web beacons mencionados ou outras tecnologias semelhantes. As configurações do navegador do seu dispositivo podem ser alteradas.

Para certos fins, podem ser invocados interesses legítimos ao invés de consentimento. Pode ler mais informação sobre este assunto na nossa Política de Privacidade e Cookies.